Wind_Speed
12 11 12 12 12 13 13 13 13 13 12 12 11 11 10 9 9 8 6 6 6 6 5 5 5 5 4 3 3 2 3 4 4 3 2 2 2 1 0 0 0 0 0 0 0 1 1 1 1
13 12 12 12 13 13 14 14 14 14 13 12 11 10 10 10 9 8 7 6 6 5 5 6 6 5 4 4 4 3 3 3 3 3 3 2 2 1 0 1 1 1 1 1 1 1 1 1 1
12 12 12 13 14 14 14 15 15 15 14 13 12 11 10 9 9 8 7 6 6 6 6 6 7 6 6 5 5 4 4 3 3 3 3 1 1 1 0 1 1 1 1 2 2 2 2 1 1
10 11 12 13 14 15 16 16 15 15 14 13 12 11 10 9 9 8 8 7 6 7 7 7 7 7 7 7 7 6 5 4 4 2 1 1 1 1 1 1 1 2 2 2 1 1 1 1 0
11 13 13 13 14 15 15 15 15 14 13 12 12 11 10 10 10 8 8 8 7 7 7 7 7 7 7 8 7 5 4 4 4 3 2 1 1 0 1 1 2 2 2 2 2 2 2 1 1
10 11 13 13 14 14 15 14 13 12 12 12 12 11 11 10 10 9 9 9 8 7 7 7 7 7 7 8 7 5 5 5 4 3 2 2 2 1 1 1 2 1 2 1 1 1 1 2 2
9 11 12 13 13 13 13 13 12 13 13 12 13 12 11 11 11 10 10 10 9 8 7 7 7 7 7 7 6 6 5 5 4 3 2 2 2 2 1 1 1 1 1 1 1 2 2 2 2
9 10 12 12 12 12 13 13 12 14 14 13 13 12 12 12 11 11 11 11 10 9 8 8 7 7 7 7 6 6 6 5 4 3 3 2 2 2 1 1 1 1 1 1 2 2 2 2 2
9 11 12 12 13 13 13 13 13 14 14 14 13 13 12 12 12 11 11 11 11 10 9 8 7 7 7 7 6 6 6 5 4 4 4 3 3 3 2 1 1 2 2 2 2 2 2 1 1
9 10 11 12 13 13 14 13 13 14 14 13 13 13 12 12 12 12 11 11 11 10 9 9 8 7 7 7 6 6 6 6 6 6 5 5 4 4 4 3 3 2 2 2 2 2 2 1 0
7 8 10 12 13 13 14 13 13 13 13 13 13 12 12 11 11 11 11 11 11 11 10 10 9 8 7 7 7 7 7 7 6 7 7 6 5 5 5 4 4 3 2 3 2 1 2 2 2
7 9 10 11 12 13 13 13 13 13 13 13 13 12 11 11 12 12 11 11 10 10 10 10 9 9 8 8 8 8 8 7 8 8 8 7 6 6 6 5 4 3 3 3 3 2 2 2 2
6 8 9 10 11 12 13 14 15 13 13 12 12 12 12 11 11 11 12 11 10 9 9 9 9 8 8 8 8 8 8 7 7 8 8 8 7 6 6 5 4 4 3 3 2 2 2 1 1
5 6 8 9 10 11 12 13 13 13 13 13 12 12 12 11 11 11 12 12 11 10 9 9 8 8 8 7 7 7 7 7 7 7 7 6 6 6 6 5 4 4 4 3 2 2 1 1 1
5 4 6 8 9 10 11 11 12 13 13 13 12 11 12 11 11 11 11 12 11 10 10 9 9 8 7 7 7 8 7 7 7 7 7 7 6 7 8 6 4 3 3 3 2 2 2 1 1
4 4 4 6 7 8 9 10 10 12 13 11 11 11 11 11 11 11 11 12 11 10 10 9 8 8 7 7 7 8 8 7 7 7 7 7 7 7 7 7 6 5 4 4 4 3 2 2 2
4 4 4 4 5 6 8 9 10 11 12 10 10 10 9 10 11 10 11 10 10 10 9 9 8 7 7 7 7 7 8 7 7 7 6 7 7 7 7 6 6 6 6 6 5 3 3 3 3
2 2 2 3 3 4 7 8 9 10 10 9 9 9 8 9 9 8 8 9 9 9 9 9 8 7 7 7 7 7 7 8 7 7 6 6 7 7 7 6 6 6 6 6 6 5 4 4 4
4 1 0 0 1 3 6 7 8 9 9 8 8 8 8 8 7 7 7 7 8 8 8 8 8 8 7 7 7 7 7 7 7 7 6 7 7 8 7 7 6 6 5 5 6 6 5 5 5
4 3 2 3 2 4 6 7 7 10 10 9 8 8 8 7 6 6 6 6 7 7 7 7 7 7 7 7 7 7 7 7 7 7 7 7 7 7 7 7 6 6 6 6 6 6 5 5 6
6 5 4 4 4 6 6 7 8 8 10 10 8 7 6 5 5 5 5 5 6 6 6 7 7 7 7 7 7 7 7 7 7 7 8 8 7 7 7 7 6 6 6 6 6 6 5 6 7
8 7 7 7 8 8 8 8 8 8 9 10 8 7 6 5 4 5 6 5 6 6 7 7 7 7 7 7 7 7 7 7 7 8 8 8 7 7 6 6 7 6 6 7 7 7 7 7 8
10 9 10 10 11 10 9 10 9 10 9 8 6 6 5 4 5 5 6 7 7 7 7 8 8 7 7 7 8 8 8 7 7 7 8 8 8 7 7 7 7 7 7 8 8 8 8 9 10
12 12 12 13 13 11 10 12 10 10 9 9 7 5 5 5 5 6 7 7 8 8 8 8 8 8 8 8 8 9 8 7 7 7 8 8 8 8 7 7 8 8 9 9 9 9 10 10 11
14 13 13 14 14 12 12 13 12 10 9 8 7 6 6 5 6 7 8 8 9 9 9 9 9 8 8 8 8 9 8 8 8 8 9 9 9 9 8 9 9 9 9 10 10 10 11 12 12
15 15 15 15 14 12 12 12 12 10 9 9 9 7 7 7 8 8 8 10 10 10 9 10 9 9 8 8 9 9 9 9 10 10 10 10 11 10 10 10 10 11 11 11 11 12 12 12 13
15 15 16 16 15 14 14 13 12 11 10 10 10 9 9 9 10 10 10 11 11 11 11 11 11 10 9 9 10 10 10 11 11 11 12 12 12 12 11 12 12 12 12 12 13 13 13 14 15
15 14 16 16 16 16 15 13 13 11 10 11 12 11 11 11 11 12 12 12 12 12 12 12 12 12 11 10 11 11 12 12 12 13 13 14 14 14 13 14 14 13 13 14 14 15 15 15 16
17 17 17 17 17 17 16 15 15 13 13 12 13 13 12 12 12 13 12 13 13 13 14 14 14 13 13 12 12 12 13 13 14 14 15 15 15 15 15 15 15 14 15 15 16 16 16 17 17
17 18 18 19 20 19 18 16 16 15 14 13 14 14 13 14 13 13 13 15 15 15 15 15 15 15 14 13 14 14 15 15 15 16 16 16 16 16 16 16 17 16 17 17 17 18 18 19 19
Wind_Direction
78 74 71 66 60 62 60 55 53 51 46 47 42 38 41 41 47 52 58 70 73 72 66 68 66 65 61 59 66 108 143 139 138 134 114 96 94 102 224 1 355 20 8 288 267 239 204 130 194
73 70 66 61 59 56 55 53 52 49 44 45 42 41 43 45 50 52 55 63 65 65 67 72 67 57 49 61 80 96 116 134 128 132 127 109 98 96 52 317 280 263 285 286 285 280 236 227 285
73 69 61 60 54 51 52 49 47 45 45 42 39 41 41 43 49 49 49 54 59 67 72 73 68 59 61 72 89 98 93 101 110 113 125 123 129 111 50 308 287 288 302 305 313 284 260 266 310
71 69 64 58 51 49 50 43 44 44 42 41 40 38 39 42 49 47 45 51 59 65 70 72 69 61 67 79 90 99 97 97 93 84 84 85 114 110 328 308 317 304 301 319 330 308 310 322 346
72 62 58 55 51 48 46 43 43 41 38 39 40 36 36 44 49 47 49 61 63 63 66 67 67 67 75 79 85 93 94 96 97 81 82 78 79 22 298 321 327 323 313 309 333 317 303 286 269
73 64 55 50 50 45 42 42 45 42 34 38 42 40 39 46 50 50 54 60 62 66 66 67 69 72 78 86 93 93 82 82 82 73 75 60 39 357 322 337 326 334 338 318 315 340 328 272 278
75 69 62 55 50 45 42 41 43 39 38 42 44 45 45 48 50 51 55 59 60 66 68 70 73 71 71 75 81 80 78 75 71 64 47 33 17 1 332 340 333 345 347 305 328 333 333 306 269
71 66 62 61 51 46 45 43 40 39 38 41 43 46 48 48 51 55 58 61 61 65 66 65 67 70 73 76 79 80 77 72 62 41 23 27 29 21 3 339 349 337 338 319 307 312 322 281 264
69 63 58 59 49 49 47 43 37 38 39 38 42 45 48 51 54 55 57 59 58 60 63 61 63 71 75 75 76 75 68 61 47 35 34 32 31 25 22 350 356 356 337 329 317 328 326 290 253
67 60 56 55 52 52 52 49 43 42 40 38 42 43 43 48 53 56 57 56 54 57 59 61 65 70 70 70 74 65 62 53 42 36 39 33 33 38 30 14 8 3 348 336 314 322 334 337 314
75 63 61 58 56 54 53 48 44 43 43 41 43 44 45 48 51 53 56 56 55 58 61 63 61 62 63 64 64 58 55 51 43 37 34 37 40 40 37 22 7 7 11 3 356 16 37 34 17
82 75 70 61 54 51 50 46 42 44 47 46 41 40 42 45 50 54 58 58 59 61 62 60 58 59 64 69 64 56 52 48 46 42 34 32 34 33 35 33 26 29 24 18 12 9 34 44 28
95 82 72 63 55 48 48 45 38 40 48 50 44 44 42 45 48 50 53 57 57 59 57 53 55 59 64 65 59 51 45 44 43 37 33 30 32 33 31 30 30 33 30 27 14 20 25 8 1
107 85 70 62 56 49 49 45 38 41 47 46 45 44 42 48 50 49 50 54 56 55 55 52 54 60 64 58 52 46 41 36 31 29 29 29 26 25 23 21 24 25 33 23 7 344 338 325 325
123 104 74 63 53 43 44 42 38 40 41 41 41 43 48 53 51 51 52 53 54 52 53 55 57 61 59 54 47 40 37 33 30 27 23 22 18 16 20 29 32 38 31 12 4 359 359 326 310
114 98 79 65 48 35 36 37 39 36 31 29 29 35 41 48 51 56 57 56 54 52 52 51 51 52 48 43 38 33 29 24 22 21 19 20 16 14 18 22 25 24 13 3 3 3 357 347 344
140 95 74 65 53 24 20 29 33 31 26 24 25 30 34 44 50 56 51 50 50 49 50 47 45 42 37 34 31 27 21 19 15 13 11 9 9 10 9 16 13 13 8 8 6 6 2 348 335
155 93 83 71 45 12 11 17 14 18 19 17 24 30 33 37 40 43 38 39 42 43 42 39 37 34 30 26 24 21 17 17 15 11 6 2 5 4 9 10 6 4 6 8 7 6 0 346 330
213 232 180 111 337 345 352 360 4 3 6 6 12 17 21 27 29 28 27 36 38 37 33 29 27 28 23 18 15 13 11 11 12 10 7 6 6 6 9 9 7 4 3 2 2 0 353 347 340
224 241 245 232 284 315 321 332 343 352 352 349 350 0 4 10 14 13 20 25 22 23 22 21 19 17 14 13 13 13 11 10 9 8 6 5 5 5 4 1 3 0 357 354 352 349 345 340 337
226 243 250 258 269 278 296 301 315 330 332 336 334 337 347 353 355 356 5 6 7 4 4 6 7 8 8 6 4 6 7 5 358 353 354 355 355 2 2 357 350 346 346 343 340 337 331 330 327
230 249 256 270 272 270 272 282 293 304 316 322 322 336 330 340 341 348 351 346 348 350 349 353 353 355 358 359 1 360 354 350 348 349 350 353 353 353 353 349 339 332 333 336 334 329 322 318 314
237 246 250 254 257 265 267 275 289 296 307 311 316 328 326 329 336 340 337 333 338 340 340 342 342 343 345 346 345 348 346 344 342 344 345 345 342 342 339 336 333 332 327 326 325 323 317 314 310
237 242 245 249 252 258 266 274 279 292 301 305 308 321 330 333 322 327 330 330 330 327 328 328 331 334 336 335 335 341 343 341 338 338 338 336 333 331 327 325 324 323 319 319 322 319 315 309 307
235 243 245 250 254 263 269 274 280 290 296 295 295 309 324 333 328 324 317 320 320 320 321 322 322 321 325 329 330 331 331 331 327 326 327 329 327 322 318 316 315 314 312 312 315 314 313 310 307
236 243 246 253 258 263 265 275 275 280 284 286 291 301 309 309 315 318 316 316 316 317 316 317 316 312 315 321 322 322 321 320 318 318 320 322 321 317 312 310 309 309 308 309 312 312 310 311 310
237 244 247 253 257 262 263 268 266 269 275 285 290 292 298 299 298 304 307 308 310 312 314 312 310 307 307 308 310 312 313 311 310 312 314 316 316 314 308 308 307 307 305 305 307 309 309 309 311
238 246 250 252 258 257 263 260 263 265 272 278 281 279 290 295 295 296 298 303 305 305 309 309 306 302 301 301 301 303 306 306 308 309 308 309 309 307 303 305 305 304 303 303 304 305 307 306 307
240 245 249 253 255 257 260 258 264 268 270 274 281 277 284 290 294 295 296 299 298 298 301 303 301 300 298 297 296 297 300 303 306 307 305 305 304 303 303 305 304 300 301 301 302 303 302 301 302
239 245 247 250 251 255 259 261 261 264 267 271 277 278 282 287 286 285 286 290 291 290 293 296 298 297 295 294 294 294 296 298 300 301 302 302 303 304 304 304 304 301 300 300 300 300 300 300 300
Height
5903 5902 5902 5902 5902 5900 5899 5898 5897 5896 5896 5895 5894 5893 5892 5891 5891 5892 5889 5887 5887 5887 5886 5886 5885 5884 5883 5882 5883 5884 5885 5886 5887 5888 5889 5890 5890 5890 5890 5890 5890 5890 5890 5890 5890 5890 5890 5890 5889
5904 5904 5905 5904 5902 5901 5900 5899 5899 5898 5897 5895 5894 5894 5893 5891 5891 5890 5889 5888 5888 5887 5887 5886 5885 5884 5882 5881 5881 5883 5885 5887 5888 5888 5889 5890 5890 5890 5891 5891 5890 5890 5890 5890 5890 5890 5890 5890 5889
5906 5906 5906 5905 5903 5902 5902 5901 5900 5899 5897 5896 5896 5895 5894 5892 5892 5891 5890 5889 5889 5888 5888 5887 5886 5884 5881 5880 5881 5883 5885 5887 5888 5889 5890 5890 5890 5891 5891 5891 5891 5891 5890 5890 5890 5890 5890 5889 5889
5907 5907 5907 5906 5904 5904 5903 5902 5901 5900 5899 5898 5897 5895 5894 5894 5893 5892 5891 5890 5890 5889 5889 5888 5887 5885 5883 5881 5882 5884 5886 5888 5889 5890 5890 5891 5891 5891 5891 5891 5891 5891 5891 5890 5890 5890 5889 5889 5889
5909 5908 5907 5906 5906 5905 5904 5903 5903 5902 5900 5899 5898 5896 5895 5895 5894 5893 5892 5891 5891 5890 5890 5889 5889 5887 5885 5884 5885 5886 5888 5889 5890 5891 5891 5891 5891 5891 5891 5891 5891 5891 5890 5890 5890 5889 5889 5889 5888
5911 5910 5909 5908 5907 5906 5905 5905 5904 5903 5902 5900 5899 5897 5896 5895 5894 5894 5893 5892 5892 5892 5891 5891 5890 5890 5889 5888 5888 5889 5890 5891 5891 5891 5891 5891 5891 5891 5891 5890 5890 5890 5890 5889 5889 5889 5888 5888 5887
5912 5911 5910 5910 5909 5908 5908 5906 5905 5904 5903 5901 5900 5899 5897 5896 5896 5895 5894 5893 5893 5892 5893 5892 5892 5892 5892 5892 5891 5891 5891 5892 5892 5892 5891 5891 5891 5890 5890 5890 5890 5890 5889 5889 5889 5888 5888 5887 5887
5913 5912 5911 5911 5910 5910 5909 5908 5906 5905 5904 5903 5902 5900 5899 5898 5897 5896 5895 5895 5894 5894 5894 5894 5893 5893 5893 5893 5893 5893 5893 5893 5892 5892 5892 5891 5890 5889 5889 5889 5890 5889 5889 5889 5888 5888 5887 5887 5886
5914 5914 5912 5912 5912 5911 5910 5909 5908 5906 5905 5904 5903 5902 5901 5900 5899 5897 5897 5896 5896 5896 5895 5895 5895 5894 5894 5894 5894 5894 5894 5894 5893 5893 5892 5891 5890 5889 5888 5889 5889 5889 5888 5888 5888 5887 5886 5886 5886
5915 5914 5914 5914 5913 5913 5911 5910 5909 5908 5906 5905 5904 5903 5902 5901 5900 5899 5899 5898 5898 5897 5897 5897 5896 5896 5896 5896 5895 5895 5895 5894 5894 5893 5892 5891 5890 5889 5888 5888 5888 5888 5888 5888 5887 5886 5886 5885 5885
5916 5916 5915 5915 5915 5914 5913 5912 5911 5909 5908 5907 5906 5905 5904 5903 5902 5901 5900 5899 5899 5899 5899 5898 5898 5897 5897 5897 5897 5896 5896 5895 5895 5894 5893 5892 5891 5890 5889 5889 5888 5888 5888 5887 5887 5886 5885 5885 5884
5918 5917 5917 5916 5916 5916 5914 5913 5912 5911 5910 5909 5907 5907 5905 5904 5903 5902 5901 5901 5900 5900 5900 5900 5899 5899 5898 5898 5898 5897 5897 5896 5895 5895 5894 5892 5892 5891 5890 5889 5888 5888 5887 5887 5886 5885 5885 5884 5884
5918 5918 5918 5917 5917 5917 5916 5915 5914 5912 5911 5910 5909 5908 5907 5905 5904 5903 5903 5902 5902 5901 5901 5901 5900 5900 5900 5899 5899 5898 5897 5897 5896 5895 5894 5893 5892 5891 5890 5889 5888 5888 5887 5886 5886 5885 5884 5884 5884
5919 5918 5918 5918 5918 5918 5917 5916 5916 5914 5913 5912 5910 5909 5908 5907 5906 5905 5904 5904 5903 5902 5902 5902 5901 5901 5901 5900 5900 5899 5898 5897 5897 5896 5895 5894 5893 5891 5890 5889 5888 5887 5886 5886 5885 5884 5884 5883 5883
5919 5919 5920 5919 5919 5919 5919 5918 5917 5916 5914 5914 5912 5911 5909 5908 5907 5906 5906 5905 5904 5903 5903 5902 5902 5901 5901 5901 5900 5899 5899 5898 5897 5896 5895 5893 5892 5891 5890 5889 5888 5887 5886 5885 5884 5883 5882 5882 5882
5919 5920 5920 5920 5920 5920 5920 5919 5918 5917 5916 5915 5913 5912 5911 5909 5908 5907 5907 5906 5906 5905 5904 5903 5902 5902 5901 5901 5901 5900 5899 5898 5897 5896 5894 5893 5892 5891 5890 5889 5888 5887 5886 5885 5883 5882 5882 5881 5881
5919 5920 5920 5921 5920 5920 5920 5919 5918 5918 5917 5916 5915 5913 5912 5911 5909 5908 5908 5908 5907 5906 5905 5904 5903 5903 5902 5902 5901 5900 5899 5898 5897 5896 5894 5893 5892 5891 5890 5889 5888 5887 5886 5884 5883 5882 5881 5881 5880
5919 5919 5919 5919 5919 5919 5919 5919 5918 5917 5918 5917 5916 5914 5913 5913 5912 5910 5909 5908 5908 5907 5906 5905 5904 5904 5903 5902 5901 5900 5899 5898 5897 5895 5894 5893 5892 5891 5889 5888 5887 5886 5885 5884 5883 5882 5881 5880 5880
5918 5918 5918 5919 5919 5919 5919 5918 5918 5917 5917 5917 5916 5915 5914 5914 5913 5912 5910 5909 5908 5907 5907 5906 5905 5904 5903 5902 5901 5900 5899 5898 5896 5895 5894 5892 5891 5890 5889 5888 5887 5886 5885 5883 5883 5881 5881 5880 5879
5917 5918 5918 5918 5918 5918 5918 5917 5917 5917 5917 5916 5916 5915 5914 5913 5913 5912 5910 5909 5908 5907 5907 5906 5905 5904 5903 5902 5901 5899 5898 5897 5896 5894 5893 5892 5891 5889 5888 5887 5886 5885 5884 5883 5882 5880 5880 5879 5878
5915 5916 5917 5917 5917 5917 5917 5917 5917 5916 5916 5916 5915 5915 5914 5913 5913 5912 5910 5909 5909 5908 5907 5906 5905 5904 5903 5901 5900 5899 5898 5896 5895 5894 5892 5891 5890 5889 5887 5886 5885 5884 5883 5882 5881 5880 5879 5878 5877
5913 5915 5915 5915 5915 5916 5916 5916 5916 5915 5915 5915 5914 5913 5912 5912 5912 5911 5910 5909 5908 5907 5906 5905 5904 5903 5902 5901 5899 5898 5897 5896 5895 5893 5892 5890 5889 5888 5886 5885 5884 5883 5882 5881 5879 5878 5877 5876 5875
5911 5912 5913 5913 5913 5914 5914 5914 5915 5913 5913 5913 5912 5911 5911 5910 5910 5910 5909 5908 5907 5906 5905 5904 5903 5902 5901 5900 5898 5897 5896 5895 5893 5892 5891 5889 5888 5887 5885 5884 5883 5882 5880 5879 5878 5877 5875 5874 5872
5909 5910 5911 5911 5911 5912 5912 5911 5912 5911 5911 5910 5909 5909 5909 5909 5908 5908 5907 5907 5906 5905 5904 5903 5902 5900 5899 5898 5897 5896 5894 5893 5892 5891 5890 5888 5887 5885 5884 5883 5882 5880 5878 5877 5875 5874 5873 5871 5870
5906 5907 5908 5908 5908 5909 5909 5908 5909 5908 5908 5907 5907 5907 5907 5907 5906 5906 5905 5905 5904 5903 5902 5901 5900 5899 5898 5897 5895 5894 5893 5892 5890 5889 5888 5886 5885 5884 5882 5881 5880 5878 5876 5875 5873 5871 5870 5868 5867
5903 5904 5905 5906 5905 5906 5906 5905 5906 5905 5905 5905 5905 5905 5905 5905 5905 5904 5903 5903 5902 5901 5900 5899 5898 5897 5896 5895 5893 5892 5891 5890 5888 5887 5885 5884 5882 5881 5880 5878 5877 5875 5874 5872 5870 5868 5867 5865 5863
5899 5900 5901 5902 5902 5902 5902 5902 5902 5902 5902 5901 5901 5901 5902 5903 5902 5902 5901 5900 5899 5898 5897 5896 5895 5894 5893 5892 5891 5890 5888 5887 5886 5884 5883 5881 5880 5878 5876 5875 5874 5872 5870 5869 5867 5865 5863 5861 5860
5896 5897 5897 5898 5898 5898 5899 5898 5898 5898 5898 5899 5899 5898 5899 5899 5899 5898 5898 5897 5897 5896 5895 5894 5893 5892 5891 5890 5888 5887 5886 5884 5883 5881 5880 5878 5876 5874 5873 5871 5870 5868 5867 5865 5863 5861 5859 5857 5855
5892 5893 5893 5893 5894 5894 5894 5897 5895 5895 5895 5895 5895 5895 5895 5895 5895 5895 5894 5894 5894 5893 5892 5891 5890 5889 5888 5887 5885 5884 5883 5881 5879 5878 5876 5874 5872 5870 5869 5867 5866 5864 5862 5861 5859 5857 5855 5853 5851
5886 5887 5888 5889 5889 5889 5890 5893 5891 5891 5891 5890 5891 5891 5891 5891 5891 5891 5891 5891 5890 5889 5888 5887 5886 5885 5884 5883 5882 5880 5879 5877 5875 5874 5872 5870 5868 5866 5865 5863 5861 5860 5858 5856 5854 5852 5850 5848 5846